Location: Lone Pine Community Mobile Home Park
(42.7367°N, 73.8567°W)
Time: 06:09:32
(UTC+00:00)

OAO 2 Rocket - Pass Details

Date: 29 October 2020
Orbit: 676 x 746 km, 35.0° (Epoch: 27 November)

Event Time Altitude Azimuth Distance (km) Brightness Sun altitude
Rises 23:38:43 0° 256° (WSW) 3,060 8.1 -20.2°
Reaches altitude 10° 23:41:19 10° 247° (WSW) 2,133 6.8 -20.7°
Maximum altitude 23:45:46 33° 184° (S) 1,130 4.4 -21.5°
Enters shadow 23:46:57 29° 155° (SSE) 1,225 4.3 -21.8°
